H1 CPF 2 NER 2025 11 25 9 329 01 glonass137 H2 1705501 9137 42939 2025 11 25 0 0 0 2025 11 28 23 45 0 900 1 1 0 0 0 1 H9 10 0 61004 0.00000 0 -18391172.214 17635745.313 1424598.645 10 0 61004 900.00000 0 -18054129.975 17443317.753 4592571.506 10 0 61004 1800.00000 0 -17490606.511 16927937.037 7671456.895 10 0 61004 2700.00000 0 -16752813.170 16071078.690 10601538.953 10 0 61004 3600.00000 0 -15897215.169 14866516.361 13325991.682 10 0 61004 4500.00000 0 -14982028.788 13320809.877 15791976.758 10 0 61004 5400.00000 0 -14064663.052 11453268.454 17951663.785 10 0 61004 6300.00000 0 -13199213.375 9295389.598 19763153.637 10 0 61004 7200.00000 0 -12434112.304 6889796.035 21191287.504 10 0 61004 8100.00000 0 -11810035.755 4288713.670 22208326.510 10 0 61004 9000.00000 0 -11358152.376 1552052.592 22794489.174 10 0 61004 9900.00000 0 -11098789.351 -1254830.526 22938336.623 10 0 61004 10800.00000 0 -11040570.593 -4063597.093 22636998.208 10 0 61004 11700.00000 0 -11180063.645 -6805517.389 21896232.996 10 0 61004 12600.00000 0 -11501950.465 -9414081.100 20730325.541 10 0 61004 13500.00000 0 -11979715.438 -11827520.236 19161817.289 10 0 61004 14400.00000 0 -12576822.306 -13991140.445 17221078.023 10 0 61004 15300.00000 0 -13248331.158 -15859364.250 14945724.707 10 0 61004 16200.00000 0 -13942887.932 -17397401.517 12379898.119 10 0 61004 17100.00000 0 -14605002.959 -18582477.680 9573410.504 10 0 61004 18000.00000 0 -15177522.489 -19404568.489 6580780.266 10 0 61004 18900.00000 0 -15604188.645 -19866610.699 3460172.180 10 0 61004 19800.00000 0 -15832179.039 -19984180.062 272263.770 10 0 61004 20700.00000 0 -15814517.850 -19784650.556 -2920939.676 10 0 61004 21600.00000 0 -15512255.281 -19305870.782 -6057317.754 10 0 61004 22500.00000 0 -14896322.005 -18594414.040 -9075850.821 10 0 61004 23400.00000 0 -13948978.905 -17703476.783 -11917814.485 10 0 61004 24300.00000 0 -12664799.609 -16690515.083 -14527928.564 10 0 61004 25200.00000 0 -11051143.183 -15614719.786 -16855437.456 10 0 61004 26100.00000 0 -9128096.041 -14534437.777 -18855100.317 10 0 61004 27000.00000 0 -6927884.651 -13504648.755 -20488071.574 10 0 61004 27900.00000 0 -4493782.907 -12574604.297 -21722654.713 10 0 61004 28800.00000 0 -1878559.363 -11785728.769 -22534914.946 10 0 61004 29700.00000 0 857471.312 -11169870.263 -22909139.365 10 0 61004 30600.00000 0 3648711.879 -10747974.674 -22838136.249 10 0 61004 31500.00000 0 6426767.234 -10529238.011 -22323368.329 10 0 61004 32400.00000 0 9123047.474 -10510771.755 -21374918.015 10 0 61004 33300.00000 0 11671381.732 -10677794.454 -20011285.721 10 0 61004 34200.00000 0 14010534.857 -11004340.648 -18259025.540 10 0 61004 35100.00000 0 16086523.190 -11454456.500 -16152225.548 10 0 61004 36000.00000 0 17854634.102 -11983831.174 -13731842.847 10 0 61004 36900.00000 0 19281066.269 -12541794.695 -11044906.301 10 0 61004 37800.00000 0 20344123.518 -13073597.728 -8143602.343 10 0 61004 38700.00000 0 21034913.635 -13522876.863 -5084261.531 10 0 61004 39600.00000 0 21357524.165 -13834201.178 -1926265.533 10 0 61004 40500.00000 0 21328669.070 -13955592.502 1269104.275 10 0 61004 41400.00000 0 20976822.183 -13840912.821 4439854.222 10 0 61004 42300.00000 0 20340874.795 -13452017.919 7524478.679 10 0 61004 43200.00000 0 19468374.578 -12760586.136 10463150.048 10 0 61004 44100.00000 0 18413420.376 -11749544.778 13198875.446 10 0 61004 45000.00000 0 17234301.681 -10414033.553 15678597.804 10 0 61004 45900.00000 0 15990982.057 -8761863.785 17854220.381 10 0 61004 46800.00000 0 14742532.057 -6813453.129 19683535.294 10 0 61004 47700.00000 0 13544619.126 -4601237.325 21131038.523 10 0 61004 48600.00000 0 12447159.321 -2168582.203 22168616.168 10 0 61004 49500.00000 0 11492228.858 431760.231 22776089.099 10 0 61004 50400.00000 0 10712322.573 3139588.884 22941605.775 10 0 61004 51300.00000 0 10129031.900 5889504.895 22661875.751 10 0 61004 52200.00000 0 9752197.510 8613385.141 21942239.210 10 0 61004 53100.00000 0 9579572.128 11242976.520 20796570.768 10 0 61004 54000.00000 0 9597007.706 13712504.427 19247018.809 10 0 61004 54900.00000 0 9779159.352 15961187.861 17323584.529 10 0 61004 55800.00000 0 10090676.710 17935557.164 15063547.990 10 0 61004 56700.00000 0 10487832.935 19591478.172 12510751.356 10 0 61004 57600.00000 0 10920522.807 20895798.494 9714752.461 10 0 61004 58500.00000 0 11334545.664 21827547.095 6729864.560 10 0 61004 59400.00000 0 11674076.496 22378636.884 3614100.669 10 0 61004 60300.00000 0 11884220.188 22554040.852 428043.023 10 0 61004 61200.00000 0 11913540.033 22371434.427 -2766339.939 10 0 61004 62100.00000 0 11716452.468 21860319.344 -5906905.414 10 0 61004 63000.00000 0 11255385.440 21060666.418 -8932552.502 10 0 61004 63900.00000 0 10502607.772 20021135.009 -11784418.263 10 0 61004 64800.00000 0 9441650.841 18796945.023 -14407029.424 10 0 61004 65700.00000 0 8068261.241 17447491.966 -16749386.580 10 0 61004 66600.00000 0 6390843.094 16033806.343 -18765959.219 10 0 61004 67500.00000 0 4430370.337 14615965.060 -20417572.000 10 0 61004 68400.00000 0 2219771.777 13250564.177 -21672165.066 10 0 61004 69300.00000 0 -197186.059 11988359.484 -22505413.864 10 0 61004 70200.00000 0 -2767472.171 10872173.832 -22901196.949 10 0 61004 71100.00000 0 -5430755.328 9935158.624 -22851903.251 10 0 61004 72000.00000 0 -8121677.904 9199481.673 -22358573.492 10 0 61004 72900.00000 0 -10772345.160 8675495.480 -21430873.589 10 0 61004 73800.00000 0 -13314926.991 8361419.716 -20086901.038 10 0 61004 74700.00000 0 -15684264.511 8243550.028 -18352828.390 10 0 61004 75600.00000 0 -17820373.779 8296983.233 -16262390.941 10 0 61004 76500.00000 0 -19670743.280 8486827.333 -13856228.624 10 0 61004 77400.00000 0 -21192330.299 8769844.482 -11181094.887 10 0 61004 78300.00000 0 -22353173.913 9096456.943 -8288947.836 10 0 61004 79200.00000 0 -23133558.263 9413030.830 -5235941.202 10 0 61004 80100.00000 0 -23526678.445 9664340.839 -2081334.703 10 0 61004 81000.00000 0 -23538782.200 9796111.536 1113655.046 10 0 61004 81900.00000 0 -23188782.372 9757527.639 4287040.772 10 0 61004 82800.00000 0 -22507357.243 9503606.997 7377264.848 10 0 61004 83700.00000 0 -21535577.213 8997335.835 10324390.374 10 0 61004 84600.00000 0 -20323115.967 8211475.786 13071260.044 10 0 61004 85500.00000 0 -18926121.522 7129966.095 15564600.482 10 0 61005 0.00000 0 -17404836.720 5748861.389 17756050.784 10 0 61005 900.00000 0 -15821067.966 4076763.953 19603096.893 10 0 61005 1800.00000 0 -14235610.024 2134733.121 21069891.317 10 0 61005 2700.00000 0 -12705731.506 -44328.203 22127946.762 10 0 61005 3600.00000 0 -11282827.724 -2416784.040 22756687.711 10 0 61005 4500.00000 0 -10010337.653 -4929828.851 22943850.820 10 0 61005 5400.00000 0 -8922011.671 -7523440.544 22685726.289 10 0 61005 6300.00000 0 -8040601.990 -10132643.345 21987235.438 10 0 61005 7200.00000 0 -7377030.188 -12689987.929 20861842.562 10 0 61005 8100.00000 0 -6930066.455 -15128146.955 19331302.188 10 0 61005 9000.00000 0 -6686533.831 -17382519.082 17425245.773 10 0 61005 9900.00000 0 -6622028.864 -19393733.699 15180614.964 10 0 61005 10800.00000 0 -6702128.361 -21109952.394 12640951.513 10 0 61005 11700.00000 0 -6884031.414 -22488871.202 9855556.777 10 0 61005 12600.00000 0 -7118567.283 -23499339.800 6878536.609 10 0 61005 13500.00000 0 -7352484.057 -24122529.616 3767749.858 10 0 61005 14400.00000 0 -7530920.760 -24352601.585 583680.952 10 0 61005 15300.00000 0 -7599957.525 -24196845.292 -2611741.128 10 0 61005 16200.00000 0 -7509134.840 -23675283.585 -5756353.863 10 0 61005 17100.00000 0 -7213834.007 -22819759.421 -8788977.841 10 0 61005 18000.00000 0 -6677416.702 -21672543.744 -11650614.360 10 0 61005 18900.00000 0 -5873031.788 -20284523.530 -14285599.830 10 0 61005 19800.00000 0 -4785011.658 -18713046.942 -16642693.736 10 0 61005 20700.00000 0 -3409797.963 -17019516.959 -18676078.440 10 0 61005 21600.00000 0 -1756356.572 -15266835.300 -20346251.109 10 0 61005 22500.00000 0 153936.656 -13516804.468 -21620790.464 10 0 61005 23400.00000 0 2287935.338 -11827597.198 -22474983.695 10 0 61005 24300.00000 0 4601861.194 -10251399.330 -22892301.854 10 0 61005 25200.00000 0 7042894.867 -8832324.420 -22864715.088 10 0 61005 26100.00000 0 9551153.072 -7604686.721 -22392842.214 10 0 61005 27000.00000 0 12061970.140 -6591703.784 -21485932.328 10 0 61005 27900.00000 0 14508389.471 -5804681.736 -20161679.283 10 0 61005 28800.00000 0 16823761.655 -5242715.986 -18445872.975 10 0 61005 29700.00000 0 18944341.645 -4892918.451 -16371894.425 10 0 61005 30600.00000 0 20811777.446 -4731160.330 -13980064.499 10 0 61005 31500.00000 0 22375387.210 -4723297.915 -11316858.933 10 0 61005 32400.00000 0 23594130.468 -4826828.698 -8434004.816 10 0 61005 33300.00000 0 24438191.925 -4992907.038 -5387476.003 10 0 61005 34200.00000 0 24890112.326 -5168633.630 -2236406.939 10 0 61005 35100.00000 0 24945419.871 -5299521.517 958054.027 10 0 61005 36000.00000 0 24612736.410 -5332034.069 4133929.577 10 0 61005 36900.00000 0 23913354.651 -5216087.364 7229613.557 10 0 61005 37800.00000 0 22880304.629 -4907410.943 10185063.030 10 0 61005 38700.00000 0 21556949.005 -4369666.978 12942959.229 10 0 61005 39600.00000 0 19995166.296 -3576238.010 15449815.059 10 0 61005 40500.00000 0 18253198.220 -2511607.421 17657007.976 10 0 61005 41400.00000 0 16393251.083 -1172273.765 19521718.682 10 0 61005 42300.00000 0 14478951.264 432840.378 21007757.913 10 0 61005 43200.00000 0 12572760.589 2282503.410 22086265.817 10 0 61005 44100.00000 0 10733458.932 4343810.196 22736270.896 10 0 61005 45000.00000 0 9013798.408 6573313.059 22945097.958 10 0 61005 45900.00000 0 7458426.329 8918602.784 22708617.377 10 0 61005 46800.00000 0 6102162.863 11320275.472 22031330.710 10 0 61005 47700.00000 0 4968704.740 13714204.867 20926290.627 10 0 61005 48600.00000 0 4069808.597 16034026.986 19414856.122 10 0 61005 49500.00000 0 3404987.738 18213734.696 17526286.907 10 0 61005 50400.00000 0 2961734.718 20190274.879 15297183.950 10 0 61005 51300.00000 0 2716260.121 21906040.325 12770786.098 10 0 61005 52200.00000 0 2634716.247 23311152.363 9996135.591 10 0 61005 53100.00000 0 2674853.846 24365438.569 7027128.113 10 0 61005 54000.00000 0 2788041.582 25040022.313 3921465.515 10 0 61005 54900.00000 0 2921562.290 25318456.990 739531.566 10 0 61005 55800.00000 0 3021088.110 25197356.785 -2456787.017 10 0 61005 56700.00000 0 3033228.717 24686497.062 -5605310.698 10 0 61005 57600.00000 0 2908043.573 23808379.941 -8644784.065 10 0 61005 58500.00000 0 2601410.528 22597283.332 -11516074.936 10 0 61005 59400.00000 0 2077149.195 21097833.653 -14163331.403 10 0 61005 60300.00000 0 1308807.959 19363162.657 -16535073.554 10 0 61005 61200.00000 0 281037.895 17452726.352 -18585198.037 10 0 61005 62100.00000 0 -1009505.471 15429878.121 -20273875.669 10 0 61005 63000.00000 0 -2553771.547 13359298.278 -21568324.636 10 0 61005 63900.00000 0 -4330452.467 11304388.032 -22443444.505 10 0 61005 64800.00000 0 -6306644.209 9324736.936 -22882299.203 10 0 61005 65700.00000 0 -8439004.025 7473769.394 -22876440.180 10 0 61005 66600.00000 0 -10675356.254 5796667.955 -22426064.107 10 0 61005 67500.00000 0 -12956679.991 4328659.164 -21540002.655 10 0 61005 68400.00000 0 -15219396.128 3093732.327 -20235545.033 10 0 61005 69300.00000 0 -17397858.826 2103843.285 -18538097.098 10 0 61005 70200.00000 0 -19426948.010 1358634.912 -16480683.863 10 0 61005 71100.00000 0 -21244655.244 845684.378 -14103305.108 10 0 61005 72000.00000 0 -22794555.534 541265.240 -11452156.622 10 0 61005 72900.00000 0 -24028062.395 411590.864 -8578732.109 10 0 61005 73800.00000 0 -24906372.402 414485.579 -5538823.101 10 0 61005 74700.00000 0 -25402018.418 501412.073 -2391436.290 10 0 61005 75600.00000 0 -25499966.973 619768.667 802350.733 10 0 61005 76500.00000 0 -25198214.275 715358.809 3980573.110 10 0 61005 77400.00000 0 -24507856.332 734927.997 7081578.657 10 0 61005 78300.00000 0 -23452630.560 628660.589 10045220.882 10 0 61005 79200.00000 0 -22067948.318 352530.730 12814021.988 10 0 61005 80100.00000 0 -20399459.017 -129592.153 15334283.478 10 0 61005 81000.00000 0 -18501205.833 -844172.462 17557123.130 10 0 61005 81900.00000 0 -16433449.885 -1806647.297 19439418.689 10 0 61005 82800.00000 0 -14260253.414 -3020533.029 20944640.463 10 0 61005 83700.00000 0 -12046922.220 -4477038.105 22043557.225 10 0 61005 84600.00000 0 -9857413.310 -6155199.507 22714802.247 10 0 61005 85500.00000 0 -7751814.976 -8022538.581 22945288.822 10 0 61006 0.00000 0 -5784003.604 -10036210.219 22730467.460 10 0 61006 900.00000 0 -3999572.933 -12144600.172 22074419.442 10 0 61006 1800.00000 0 -2434123.873 -14289302.723 20989784.999 10 0 61006 2700.00000 0 -1111982.014 -16407401.306 19497526.460 10 0 61006 3600.00000 0 -45398.399 -18433955.496 17626530.370 10 0 61006 4500.00000 0 765734.548 -20304592.547 15413055.343 10 0 61006 5400.00000 0 1333640.328 -21958095.588 12900035.412 10 0 61006 6300.00000 0 1681899.492 -23338880.442 10136251.595 10 0 61006 7200.00000 0 1844206.915 -24399257.159 7175387.151 10 0 61006 8100.00000 0 1862698.120 -25101381.001 4074984.558 10 0 61006 9000.00000 0 1785915.939 -25418810.360 895324.482 10 0 61006 9900.00000 0 1666504.253 -25337605.381 -2301751.113 10 0 61006 10800.00000 0 1558727.381 -24856920.404 -5454048.181 10 0 61006 11700.00000 0 1515921.265 -23989064.743 -8500237.840 10 0 61006 12600.00000 0 1587985.630 -22759028.845 -11381056.934 10 0 61006 13500.00000 0 1819024.573 -21203495.630 -14040467.715 10 0 61006 14400.00000 0 2245236.691 -19369378.645 -16426753.252 10 0 61006 15300.00000 0 2893145.116 -17311948.685 -18493526.706 10 0 61006 16200.00000 0 3778243.265 -15092627.821 -20200634.523 10 0 61006 17100.00000 0 4904114.322 -12776543.594 -21514936.020 10 0 61006 18000.00000 0 6262062.283 -10429945.964 -22410944.425 10 0 61006 18900.00000 0 7831270.727 -8117595.028 -22871317.403 10 0 61006 19800.00000 0 9579483.180 -5900228.309 -22887188.144 10 0 61006 20700.00000 0 11464177.032 -3832212.773 -22458331.191 10 0 61006 21600.00000 0 13434182.283 -1959478.614 -21593160.411 10 0 61006 22500.00000 0 15431677.838 -317819.782 -20308559.630 10 0 61006 23400.00000 0 17394482.262 1068369.220 -18629549.572 10 0 61006 24300.00000 0 19258543.693 2186869.189 -16588797.798 10 0 61006 25200.00000 0 20960525.225 3037893.985 -14225981.202 10 0 61006 26100.00000 0 22440378.035 3633821.157 -11587013.467 10 0 61006 27000.00000 0 23643795.036 3998408.407 -8723152.395 10 0 61006 27900.00000 0 24524442.681 4165530.349 -5690004.361 10 0 61006 28800.00000 0 25045877.795 4177490.034 -2546445.209 10 0 61006 29700.00000 0 25183069.415 4082977.523 646521.488 10 0 61006 30600.00000 0 24923462.096 3934762.486 3826946.636 10 0 61006 31500.00000 0 24267536.294 3787218.888 6933135.278 10 0 61006 32400.00000 0 23228842.464 3693786.778 9904840.446 10 0 61006 33300.00000 0 21833507.471 3704478.697 12684428.145 10 0 61006 34200.00000 0 20119233.873 3863536.240 15217990.990 10 0 61006 35100.00000 0 18133833.740 4207335.904 17456389.249 10 0 61006 36000.00000 0 15933357.874 4762632.772 19356199.512 10 0 61006 36900.00000 0 13579898.010 5545216.496 20880553.084 10 0 61006 37800.00000 0 11139152.949 6559036.674 21999848.404 10 0 61006 38700.00000 0 8677859.173 7795835.308 22692324.163 10 0 61006 39600.00000 0 6261191.989 9235302.825 22944482.383 10 0 61006 40500.00000 0 3950244.373 10845752.495 22751353.431 10 0 61006 41400.00000 0 1799687.372 12585286.500 22116597.764 10 0 61006 42300.00000 0 -144291.456 14403406.423 21052442.077 10 0 61006 43200.00000 0 -1845686.578 16243002.306 19579450.512 10 0 61006 44100.00000 0 -3279939.939 18042638.457 17726134.532 10 0 61006 45000.00000 0 -4434721.087 19739041.408 15528408.137 10 0 61006 45900.00000 0 -5310189.905 21269686.624 13028898.028 10 0 61006 46800.00000 0 -5918731.430 22575375.893 10276121.284 10 0 61006 47700.00000 0 -6284174.360 23602697.217 7323545.888 10 0 61006 48600.00000 0 -6440526.700 24306263.499 4228552.028 10 0 61006 49500.00000 0 -6430282.503 24650635.239 1051314.322 10 0 61006 50400.00000 0 -6302371.978 24611845.475 -2146372.925 10 0 61006 51300.00000 0 -6109842.598 24178461.893 -5302303.994 10 0 61006 52200.00000 0 -5907370.408 23352140.478 -8355079.200 10 0 61006 53100.00000 0 -5748708.062 22147646.733 -11245306.900 10 0 61006 54000.00000 0 -5684178.871 20592343.034 -13916765.715 10 0 61006 54900.00000 0 -5758324.093 18725163.393 -16317503.630 10 0 61006 55800.00000 0 -6007804.085 16595118.608 -18400851.935 10 0 61006 56700.00000 0 -6459642.949 14259394.589 -20126334.019 10 0 61006 57600.00000 0 -7129891.591 11781123.600 -21460451.337 10 0 61006 58500.00000 0 -8022766.116 9226921.788 -22377331.480 10 0 61006 59400.00000 0 -9130298.364 6664295.830 -22859226.250 10 0 61006 60300.00000 0 -10432513.618 4159026.626 -22896850.631 10 0 61006 61200.00000 0 -11898128.299 1772638.701 -22489556.733 10 0 61006 62100.00000 0 -13485738.646 -439940.109 -21645339.919 10 0 61006 63000.00000 0 -15145450.806 -2432432.228 -20380677.519 10 0 61006 63900.00000 0 -16820884.279 -4168892.952 -18720203.604 10 0 61006 64800.00000 0 -18451465.081 -5624953.458 -16696226.398 10 0 61006 65700.00000 0 -19974912.877 -6788574.062 -14348097.707 10 0 61006 66600.00000 0 -21329818.143 -7660277.977 -11721446.672 10 0 61006 67500.00000 0 -22458201.634 -8252857.536 -8867292.594 10 0 61006 68400.00000 0 -23307949.080 -8590566.877 -5841054.001 10 0 61006 69300.00000 0 -23835019.173 -8707836.527 -2701473.160 10 0 61006 70200.00000 0 -24005332.343 -8647565.263 490523.113 10 0 61006 71100.00000 0 -23796261.140 -8459062.312 3673004.213 10 0 61006 72000.00000 0 -23197659.683 -8195727.495 6784235.099 10 0 61006 72900.00000 0 -22212388.913 -7912567.827 9763870.958 10 0 61006 73800.00000 0 -20856315.471 -7663655.774 12554124.120 10 0 61006 74700.00000 0 -19157783.944 -7499636.707 15100880.673 10 0 61006 75600.00000 0 -17156584.173 -7465390.853 17354745.494 10 0 61006 76500.00000 0 -14902456.191 -7597948.415 19271995.824 10 0 61006 77400.00000 0 -12453194.515 -7924745.907 20815425.403 10 0 61006 78300.00000 0 -9872429.963 -8462297.344 21955063.340 10 0 61006 79200.00000 0 -7227180.342 -9215336.691 22668754.309 10 0 61006 80100.00000 0 -4585270.879 -10176468.287 22942589.177 10 0 61006 81000.00000 0 -2012730.508 -11326340.891 22771177.914 10 0 61006 81900.00000 0 428728.916 -12634339.244 22157759.433 10 0 61006 82800.00000 0 2684046.673 -14059765.461 21114145.894 10 0 61006 83700.00000 0 4706864.420 -15553462.109 19660501.955 10 0 61006 84600.00000 0 6461210.018 -17059810.270 17824962.444 10 0 61006 85500.00000 0 7922744.415 -18519019.913 15643094.946 10 0 61007 0.00000 0 9079520.002 -19869617.186 13157217.034 10 0 61007 900.00000 0 9932219.773 -21051025.409 10415579.141 10 0 61007 1800.00000 0 10493866.253 -22006129.532 7471431.733 10 0 61007 2700.00000 0 10789014.993 -22683718.341 4381990.095 10 0 61007 3600.00000 0 10852465.585 -23040699.062 1207320.082 10 0 61007 4500.00000 0 10727545.963 -23043990.940 -1990834.437 10 0 61007 5400.00000 0 10464043.215 -22672016.802 -5150258.816 10 0 61007 6300.00000 0 10115869.402 -21915728.655 -8209485.279 10 0 61007 7200.00000 0 9738562.240 -20779123.128 -11108996.279 10 0 61007 8100.00000 0 9386727.601 -19279224.175 -13792389.276 10 0 61007 9000.00000 0 9111533.136 -17445533.159 -16207479.440 10 0 61007 9900.00000 0 8958360.070 -15318968.990 -18307318.230 10 0 61007 10800.00000 0 8964713.294 -12950342.550 -20051107.725 10 0 61007 11700.00000 0 9158478.627 -10398429.183 -21404992.908 10 0 61007 12600.00000 0 9556601.268 -7727719.804 -22342716.726 10 0 61007 13500.00000 0 10164241.365 -5005944.420 -22846125.671 10 0 61007 14400.00000 0 10974442.389 -2301471.054 -22905516.642 10 0 61007 15300.00000 0 11968326.284 319311.962 -22519819.007 10 0 61007 16200.00000 0 13115807.163 2794522.059 -21696608.927 10 0 61007 17100.00000 0 14376793.610 5069112.679 -20451956.176 10 0 61007 18000.00000 0 15702829.078 7096911.851 -18810106.791 10 0 61007 18900.00000 0 17039101.650 8842285.622 -16803007.960 10 0 61007 19800.00000 0 18326738.895 10281358.531 -14469684.420 10 0 61007 20700.00000 0 19505291.613 11402741.888 -11855478.491 10 0 61007 21600.00000 0 20515302.327 12207741.070 -9011168.431 10 0 61007 22500.00000 0 21300850.760 12710034.891 -5991982.142 10 0 61007 23400.00000 0 21811969.422 12934842.045 -2856525.345 10 0 61007 24300.00000 0 22006827.837 12917611.075 334354.967 10 0 61007 25200.00000 0 21853593.581 12702290.204 3518749.764 10 0 61007 26100.00000 0 21331891.813 12339250.895 6634886.912 10 0 61007 27000.00000 0 20433801.786 11882953.367 9622326.579 10 0 61007 27900.00000 0 19164348.184 11389453.037 12423129.998 10 0 61007 28800.00000 0 17541466.253 10913853.287 14982979.031 10 0 61007 29700.00000 0 15595441.566 10507812.095 17252225.152 10 0 61007 30600.00000 0 13367847.134 10217207.574 19186847.928 10 0 61007 31500.00000 0 10910021.352 10080060.727 20749304.877 10 0 61007 32400.00000 0 8281149.230 10124802.821 21909256.801 10 0 61007 33300.00000 0 5546025.629 10368960.366 22644155.033 10 0 61007 34200.00000 0 2772592.358 10818313.285 22939679.589 10 0 61007 35100.00000 0 29350.212 11466562.117 22790019.942 10 0 61007 36000.00000 0 -2617247.820 12295519.000 22197992.936 10 0 61007 36900.00000 0 -5105314.977 13275815.373 21174995.211 10 0 61007 37800.00000 0 -7379857.220 14368097.743 19740790.513 10 0 61007 38700.00000 0 -9394811.900 15524662.477 17923135.175 10 0 61007 39600.00000 0 -11114714.384 16691461.952 15757248.141 10 0 61007 40500.00000 0 -12515923.704 17810398.604 13285134.860 10 0 61007 41400.00000 0 -13587356.464 18821810.934 10554777.286 10 0 61007 42300.00000 0 -14330698.646 19667046.984 7619205.092 10 0 61007 43200.00000 0 -14760086.840 20291016.656 4535465.748 10 0 61007 44100.00000 0 -14901272.789 20644614.681 1363513.431 10 0 61007 45000.00000 0 -14790307.038 20686911.144 -1834961.288 10 0 61007 45900.00000 0 -14471797.967 20387016.000 -4997737.641 10 0 61007 46800.00000 0 -13996820.657 19725537.726 -8063282.433 10 0 61007 47700.00000 0 -13420565.014 18695573.373 -10971954.745 10 0 61007 48600.00000 0 -12799823.652 17303187.166 -13667173.181 10 0 61007 49500.00000 0 -12190426.878 15567356.596 -16096522.149 10 0 61007 50400.00000 0 -11644734.136 13519387.525 -18212775.031 10 0 61007 51300.00000 0 -11209288.729 11201822.305 -19974814.026 10 0 61007 52200.00000 0 -10922735.364 8666886.295 -21348428.734 10 0 61007 53100.00000 0 -10814088.729 5974537.477 -22306978.203 10 0 61007 54000.00000 0 -10901426.117 3190200.353 -22831903.996 10 0 61007 54900.00000 0 -11191059.078 382278.319 -22913084.951 10 0 61007 55800.00000 0 -11677218.660 -2380452.309 -22549027.332 10 0 61007 56700.00000 0 -12342267.156 -5031458.759 -21746887.337 10 0 61007 57600.00000 0 -13157427.116 -7508970.756 -20522326.020 10 0 61007 58500.00000 0 -14083996.646 -9758298.140 -18899199.832 10 0 61007 59400.00000 0 -15074999.691 -11733851.956 -16909093.023 10 0 61007 60300.00000 0 -16077201.761 -13400786.213 -14590701.049 10 0 61007 61200.00000 0 -17033406.266 -14736193.310 -11989076.979 10 0 61007 62100.00000 0 -17884934.816 -15729804.831 -9154755.440 10 0 61007 63000.00000 0 -18574187.149 -16384169.956 -6142771.033 10 0 61007 63900.00000 0 -19047172.900 -16714305.540 -3011590.236 10 0 61007 64800.00000 0 -19255908.595 -16746833.986 178022.485 10 0 61007 65700.00000 0 -19160578.883 -16518646.380 3364182.346 10 0 61007 66600.00000 0 -18731370.837 -16075148.203 6485082.759 10 0 61007 67500.00000 0 -17949903.911 -15468162.268 9480191.453 10 0 61007 68400.00000 0 -16810195.019 -14753577.819 12291421.047 10 0 61007 69300.00000 0 -15319117.709 -13988845.137 14864251.510 10 0 61007 70200.00000 0 -13496335.456 -13230421.304 17148783.040 10 0 61007 71100.00000 0 -11373710.997 -12531274.606 19100699.376 10 0 61007 72000.00000 0 -8994215.394 -11938552.405 20682123.326 10 0 61007 72900.00000 0 -6410381.139 -11491510.338 21862348.509 10 0 61007 73800.00000 0 -3682362.434 -11219789.692 22618433.630 10 0 61007 74700.00000 0 -875681.999 -11142115.212 22935648.158 10 0 61007 75600.00000 0 1941243.383 -11265468.130 22807760.987 10 0 61007 76500.00000 0 4699697.195 -11584769.408 22237166.441 10 0 61007 77400.00000 0 7333270.889 -12083087.014 21234844.868 10 0 61007 78300.00000 0 9780377.814 -12732359.198 19820158.021 10 0 61007 79200.00000 0 11986569.790 -13494604.171 18020482.381 10 0 61007 80100.00000 0 13906560.646 -14323566.164 15870686.610 10 0 61007 81000.00000 0 15505872.905 -15166729.287 13412462.340 10 0 61007 81900.00000 0 16762039.263 -15967614.923 10693520.371 10 0 61007 82800.00000 0 17665308.841 -16668266.010 7766667.268 10 0 61007 83700.00000 0 18218828.868 -17211813.290 4688779.899 10 0 61007 84600.00000 0 18438294.467 -17545014.685 1519697.765 10 0 61007 85500.00000 0 18351081.699 -17620659.722 -1678945.003 99